Weather Roundup
Issued by NWS

Home | Current Version | Previous Version | Text Only | Print | Product List | Glossary On
Versions: 1 2 3 4 5 6 7 8 9 10 11 12 13 14 15 16 17 18 19 20 21 22 23 24 25 26 27 28 29 30 31 32 33 34 35 36 37 38 39 40 41 42 43 44 45 46 47 48 49 50
139
NZUS93 KARX 071759
HRRWXR

CURRENT HOURLY OBSERVATIONS ACROSS
MUCH OF THE UPPER MISSISSIPPI VALLEY
NATIONAL WEATHER SERVICE LA CROSSE WI
1200 PM CST WED DEC 07 2016


...SOUTHEAST MINNESOTA...


CITY           SKY/WX    TMP DP  RH WIND       PRES   REMARKS
ROCHESTER      FLURRIES  17  11  77 W23       30.04S WCI  -1
ROCHESTER/MAYO CLOUDY    18  12  76 W17G28    30.05S WCI   3
WINONA         SUNNY     21  12  68 W12G22    30.08S WCI   9
AUSTIN         FLURRIES  16  10  79 W14G24    30.08S WCI   1
ALBERT LEA     CLOUDY    21  12  68 W15G25    30.09S WCI   8
DODGE CENTER     N/A     18  10  73 W20G26    30.05S WCI   1
PRESTON        LGT SNOW  16  10  75 W17G25    30.07S WCI   0
OWATONNA       CLOUDY    18   9  68 W22G28    30.07S WCI   0
FARIBAULT      FLURRIES  18  10  73 W16G25    30.08S WCI   3
$$

...ELSEWHERE IN MINNESOTA...


CITY           SKY/WX    TMP DP  RH WIND       PRES   REMARKS
MINNEAPOLIS    FLURRIES  19   9  65 W17G28    30.04S WCI   4
INTNL FALLS    LGT SNOW  24  20  84 W12       29.69R VSB 1   WCI  13
DULUTH         LGT SNOW  17  11  77 W24G31    29.77R BLWGSNOWWCI  -1
RED WING       CLOUDY    21   9  58 W16G24    30.03F WCI   7
REDWOOD FALLS  CLOUDY    19   6  57 W23G38    30.11F WCI   2
MANKATO        FLURRIES  16   8  71 W17G29    30.10F WCI   0
WORTHINGTON    FLURRIES  16   8  71 W29G38    30.13F WCI  -4
FAIRMONT       PTSUNNY   19   9  65 NW22G31   30.13F WCI   2
$$

...SOUTHWEST WISCONSIN...


CITY           SKY/WX    TMP DP  RH WIND       PRES   REMARKS
LA CROSSE      CLOUDY    23  12  62 W15       30.07F WCI  10
PRAIRIE DU CHI CLOUDY    19  10  65 W14       30.13S WCI   6
BOSCOBEL       PTSUNNY   21  11  65 W13       30.11S WCI   9
LONE ROCK      NOT AVBL
PLATTEVILLE    MOSUNNY   20  14  77 W18       30.10S WCI   5
FORT MC COY    CLOUDY    21  13  72 W14G20    30.04F WCI   8
CAMP DOUGLAS   PTSUNNY   21  12  68 W14       30.01F WCI   8
MAUSTON-NEW LI FLURRIES  20  13  71 W13G21    30.01F WCI   8
VIROQUA        FAIR      17  11  77 W14G23    30.04S WCI   3
WIS DELLS      MOSUNNY   20  12  71 W14       30.02S WCI   7
$$

...ELSEWHERE IN WISCONSIN...


CITY           SKY/WX    TMP DP  RH WIND       PRES   REMARKS
MILWAUKEE      PTSUNNY   29  15  56 W15       30.00F WCI  18
MADISON        PTSUNNY   22  12  65 W10G18    30.03F WCI  11
GREEN BAY      MOSUNNY   27  17  66 W18G28    29.92S WCI  14
EAU CLAIRE     NOT AVBL
BLACK RVR FLS  CLOUDY    22  12  64 W9G21     30.01S WCI  12
MEDFORD        LGT SNOW  16  10  77 W20G25    29.88S WCI   0
WAUSAU         LGT SNOW  19  13  77 W16G28    29.89S WCI   4
WIS RAPIDS     CLOUDY    22  14  71 W14G26    29.96S WCI   9
MARSHFIELD     CLOUDY    20  12  71 W21G28    29.92R WCI   4
RICE LAKE      CLOUDY    20  11  69 SW21G26   29.95S WCI   4
$$

...NORTHEAST IOWA...


CITY           SKY/WX    TMP DP  RH WIND       PRES   REMARKS
WATERLOO       CLOUDY    19  10  68 W14       30.14F WCI   6
DUBUQUE        CLOUDY    18  12  77 W17       30.10F WCI   3
DECORAH        CLOUDY    16  10  79 W12G21    30.08F WCI   3
MASON CITY     SUNNY     20  10  65 W21       30.13F WCI   4
CHARLES CITY   CLOUDY    18  10  73 W18       30.12F WCI   2
OELWEIN        PTSUNNY   18  12  79 W17       30.13F WCI   2
$$

...ELSEWHERE IN IOWA...


CITY           SKY/WX    TMP DP  RH WIND       PRES   REMARKS
DES MOINES     CLOUDY    23  11  60 NW18      30.23F WCI   9
IOWA CITY      MOSUNNY   24  14  65 W17G24    30.19F WCI  11
FORT DODGE     SUNNY     21  10  63 W15G25    30.19F WCI   8
MARSHALLTOWN   MOSUNNY   21  12  68 W18       30.18F WCI   6
CEDAR RAPIDS   CLOUDY    21  16  81 W18       30.15F WCI   6
$$

...NORTHERN ILLINOIS...


CITY           SKY/WX    TMP DP  RH WIND       PRES   REMARKS
CHICAGO-OHARE  PTSUNNY   27  18  69 SW14      30.08F WCI  16
CHICAGO-MIDWAY MOSUNNY   29  18  63 SW15      30.09F WCI  18
MOLINE         CLOUDY    27  16  63 W9G21     30.15F WCI  18
ROCKFORD       PTSUNNY   25  16  68 W16       30.11S WCI  12
PEORIA         MOSUNNY   31  17  56 W14G21    30.19S WCI  21
$$

NOTE: "FAIR" INDICATES FEW OR NO CLOUDS BELOW 12,000 FEET WITH NO
SIGNIFICANT WEATHER AND/OR OBSTRUCTIONS TO VISIBILITY. WIND
SPEEDS ARE IN MILES-PER-HOUR.




USA.gov is the U.S. government's official web portal to all federal, state and local government web resources and services.